Location: Asheville, NC
(35.6000°N, 82.5500°W)
Time: 16:57:58
(UTC-04:00)

AO-85 - Pass Details

Date: 16 February 2018
Orbit: 497 x 788 km, 64.8° (Epoch: 14 June)

Event Time Altitude Azimuth Distance (km) Brightness Sun altitude
Exits shadow 05:39:39 43° 325° (NW) 775 ? -20.2°
Drops below altitude 10° 05:43:14 10° 18° (NNE) 1,888 ? -19.4°
Sets 05:45:39 0° 24° (NNE) 2,842 ? -18.9°
